Regional Weather Roundup
Issued by NWS

Home | Current Version | Previous Version | Text Only | Print | Product List | Glossary Off
Versions: 1 2 3 4 5 6 7 8 9 10 11 12 13 14 15 16 17 18 19 20 21 22 23 24 25 26 27 28 29 30 31 32 33 34 35 36 37 38 39 40 41 42 43 44 45 46 47 48 49 50

000
ASUS43 KDMX 220006
RWRIA

WEATHER ROUNDUP FOR IOWA
NATIONAL WEATHER SERVICE DES MOINES IA
600 PM CST TUE FEB 21 2017

NOTE: "FAIR" INDICATES FEW OR NO CLOUDS BELOW 12,000 FEET WITH NO
SIGNIFICANT WEATHER AND/OR OBSTRUCTIONS TO VISIBILITY.

* - THESE STATIONS ARE NOT NWS STATIONS...THUS NOT UNDER NWS
QUALITY CONTROL.  THEY ALSO DO NOT REPORT WEATHER SUCH
AS PRECIPITATION OR FOG.

IAZ001>003-012>014-020>022-031>034-043>046-220100-
   NORTHWEST IOWA

CITY           SKY/WX    TMP DP  RH WIND       PRES   REMARKS
CARROLL *      CLEAR     55  46  71 S10       29.80F
CHEROKEE *     CLEAR     61  38  42 S10       29.74S
DENISON *      CLEAR     61  41  48 S14G25    29.77S
LE MARS *      CLEAR     63  39  42 S13       29.72F
ORANGE CITY *  CLEAR     57  45  62 SW8       29.72S
SHELDON *      CLEAR     59  45  58 S8        29.70S
SIOUX CITY     CLEAR     66  38  35 S15       29.73F
6HR MIN TEMP:  64; 6HR MAX TEMP:  73;

SPENCER        CLEAR     56  44  64 S12       29.73F
6HR MIN TEMP:  56; 6HR MAX TEMP:  66;

STORM LAKE *   CLEAR     57  45  62 S14       29.76S
$$

IAZ055>058-069>071-079>083-090>094-220100-
   SOUTHWEST IOWA

CITY           SKY/WX    TMP DP  RH WIND       PRES   REMARKS
ATLANTIC *     CLEAR     59  43  55 S10       29.84S
CLARINDA *     CLEAR     59  41  51 S6          N/A
COUNCIL BLFS * CLEAR     64  37  36 S12       29.82S
CRESTON *      CLEAR     57  36  44 S9        29.88S
HARLAN  *      CLEAR     61  43  51 S9        29.85F
LAMONI         CLEAR     61  35  37 S7        29.88S
6HR MIN TEMP:  61; 6HR MAX TEMP:  69;

RED OAK *      CLEAR     59  43  55 S9        29.85S
SHENANDOAH *   CLEAR     61  39  44 S9        29.86S
$$

IAZ047>049-059>061-072>074-084-220100-
   CENTRAL IOWA

CITY           SKY/WX    TMP DP  RH WIND       PRES   REMARKS
AMES           CLEAR     56  40  55 S9        29.82F
6HR MIN TEMP:  55; 6HR MAX TEMP:  64;

ANKENY *       CLEAR     61  34  36 S7        29.85F
BOONE *        CLEAR     59  41  51 S9        29.81F
CHARITON *     CLEAR     63  34  34 SW6       29.87S
DES MOINES     PTCLDY    60  34  37 S10       29.84F
6HR MIN TEMP:  60; 6HR MAX TEMP:  68;

GRINNELL*      CLEAR     56  41  55 S6        29.87F
KNOXVILLE *    CLEAR     63  32  31 S5        29.85S
MARSHALLTOWN   CLEAR     56  41  57 S9        29.82F
6HR MIN TEMP:  55; 6HR MAX TEMP:  63;

NEWTON *       CLEAR     55  39  54 S8        29.84F
PELLA *        CLEAR     63  33  32 S3        29.87S
PERRY *          N/A     56  42  59 S12       29.82F
$$

IAZ004>006-015-016-023>025-035-036-220100-
   NORTH CENTRAL IOWA

CITY           SKY/WX    TMP DP  RH WIND       PRES   REMARKS
ALGONA *       CLEAR     55  48  76 S13       29.77S
CLARION *      CLEAR     54  48  82 S13       29.78S
ESTHERVILLE    CLEAR     54  45  71 S9        29.73F
6HR MIN TEMP:  54; 6HR MAX TEMP:  64;

FORT DODGE *   CLEAR     57  43  58 S13       29.79S
MASON CITY     PTCLDY    52  44  74 S9        29.80S
6HR MIN TEMP:  52; 6HR MAX TEMP:  59;

FOREST CITY *    N/A     54  43  66 S6        29.78R
WEBSTER CITY * CLEAR     55  45  67 S12       29.77F
IOWA FALLS *     N/A     54  45  71 S12       29.81F
$$

IAZ007>011-017>019-026>030-037>042-050>054-066-220100-
   NORTHEAST IOWA

CITY           SKY/WX    TMP DP  RH WIND       PRES   REMARKS
CEDAR RAPIDS   CLEAR     56  41  57 S5        29.86F
6HR MIN TEMP:  55; 6HR MAX TEMP:  64;

CHARLES CITY * CLOUDY    54  46  76 S13       29.81S
CLINTON *      CLOUDY    60  46  59 S3        29.89F
DECORAH *      CLOUDY    54  43  66 S10G16    29.81S
DUBUQUE        CLOUDY    52  41  66 S7        29.87F
6HR MIN TEMP:  52; 6HR MAX TEMP:  61;

MONTICELLO *   PTCLDY    52  43  71 S5        29.86F
OELWEIN *      MOCLDY    52  46  82 S10       29.84S
WATERLOO       CLEAR     55  39  54 S8        29.83S
6HR MIN TEMP:  54; 6HR MAX TEMP:  62;

$$

IAZ064-065-067-068-078-220100-
   EAST CENTRAL IOWA

CITY           SKY/WX    TMP DP  RH WIND       PRES   REMARKS
DAVENPORT      CLOUDY    59  44  57 NW3       29.89F
6HR MIN TEMP:  57; 6HR MAX TEMP:  65;

IOWA CITY      CLEAR     58  40  51 CALM      29.88F
6HR MIN TEMP:  58; 6HR MAX TEMP:  67;

MUSCATINE *    MOCLDY    61  41  48 SE7       29.88F
QUAD CITIES    PTCLDY    60  44  55 CALM      29.88S
6HR MIN TEMP:  60; 6HR MAX TEMP:  69;

$$

IAZ062-063-075>077-085>089-095>099-220100-
   SOUTHEAST IOWA

CITY           SKY/WX    TMP DP  RH WIND       PRES   REMARKS
BURLINGTON     CLEAR     60  53  77 S3        29.89R
6HR MIN TEMP:  59; 6HR MAX TEMP:  67;

FAIRFIELD *    CLEAR     59  32  36 E3        29.87F
KEOKUK *       CLEAR     63  54  72 S5        29.89S
OTTUMWA        CLEAR     60  29  30 SW5       29.87F
6HR MIN TEMP:  60; 6HR MAX TEMP:  70;

WASHINGTON *   CLEAR     63  36  36 SE5       29.88F
$$

ABBREVIATIONS USED IN REMARKS
   TC - TEMPERATURES IN CELSIUS
  WCI - WIND CHILL INDEX
   HX - HEAT INDEX
  VSB - VISIBILITY
$$





USA.gov is the U.S. government's official web portal to all federal, state and local government web resources and services.